Location: Warszawa
(52.2500°N, 21.0000°E)
Time: 15:04:56
(UTC+01:00)

Vanguard 2 - Pass Details

Date: 15 February 2023
Orbit: 553 x 2927 km, 32.9° (Epoch: 24 March)

Event Time Altitude Azimuth Distance (km) Brightness Sun altitude
Rises 23:04:49 0° 259° (W) 5,147 11.8 -49.2°
Enters shadow 23:07:22 - 251° (WSW) 4,754 11.5 -49.4°
Reaches altitude 10° 23:09:09 10° 244° (WSW) 4,540 - -49.4°
Maximum altitude 23:17:40 20° 204° (SSW) 4,347 - -49.7°
Drops below altitude 10° 23:28:02 10° 165° (SSE) 5,626 - -50.0°
Sets 23:34:27 0° 152° (SSE) 6,763 - -50.1°
